Weather reports worldwide

Advertisment
Rotterdam Zestienhoven, Netherlands (6344): temperature & dewpoint: 06.11.2019 06:00:00 - 12.11.2019 06:00:00 (CET)Rotterdam Zestienhoven, Netherlands (6344): temperature 5cm: 06.11.2019 06:00:00 - 12.11.2019 06:00:00 (CET)Rotterdam Zestienhoven, Netherlands (6344): wind speed & gusts: 06.11.2019 06:00:00 - 12.11.2019 06:00:00 (CET)Rotterdam Zestienhoven, Netherlands (6344): wind direction: 06.11.2019 06:00:00 - 12.11.2019 06:00:00 (CET)Rotterdam Zestienhoven, Netherlands (6344): reduced air pressure: 06.11.2019 06:00:00 - 12.11.2019 06:00:00 (CET)Rotterdam Zestienhoven, Netherlands (6344): visibility: 06.11.2019 06:00:00 - 12.11.2019 06:00:00 (CET)Rotterdam Zestienhoven, Netherlands (6344): precipitation: 06.11.2019 06:00:00 - 12.11.2019 06:00:00 (CET)
Date & Time tt [°C] td [°C] tt 5cm [°C] ff [km/h] ff [kn] fx [km/h] fx [kn] dd ppp [hPa] vv [km] rr [mm]
12.11.2019 06:00:00 5,4 4,3 5,0 21 11 32 18 WSW 998,9 10 0,0
12.11.2019 05:00:00 5,7 4,4 5,0 15 8 50 27 SSW 999,3 10 0,6
12.11.2019 04:00:00 6,1 4,1 5,1 29 16 43 23 SSW 999,0 10 1,7
12.11.2019 03:00:00 5,1 4,4 4,6 26 14 40 21 S 999,4 10 1,3
12.11.2019 02:00:00 5,6 4,4 5,1 22 12 36 19 S 999,2 10 0,3
12.11.2019 01:00:00 5,3 4,3 4,9 18 10 40 21 SSW 999,5 10 1,9
12.11.2019 00:00:00 5,4 3,6 4,7 21 11 43 23 SSW 999,7 10 0,6
11.11.2019 23:00:00 6,1 4,0 5,0 24 13 47 25 S 999,4 10 0,5
11.11.2019 22:00:00 6,5 4,5 5,3 16 9 29 16 S 999,4 10 0,1
11.11.2019 21:00:00 6,9 3,4 5,0 9 5 32 18 W 999,5 10 1,6
11.11.2019 20:00:00 7,6 4,1 5,8 16 9 25 14 WSW 999,1 10 0,0
11.11.2019 19:00:00 7,2 4,9 5,9 16 9 29 16 SW 998,9 10 1,0
11.11.2019 18:00:00 7,2 5,1 6,0 21 11 32 18 WSW 998,7 10 0,6
11.11.2019 17:00:00 6,9 5,5 6,2 21 11 36 19 SW 998,0 10 0,5
11.11.2019 16:00:00 6,9 6,1 6,5 22 12 43 23 SSW 997,8 10 0,9
11.11.2019 15:00:00 6,5 5,2 6,0 29 16 50 27 S 997,9 10 0,8
11.11.2019 14:00:00 6,1 4,7 5,7 29 16 50 27 S 998,9 10 1,2
11.11.2019 13:00:00 6,3 4,6 6,1 29 16 54 29 S 999,7 9 0,9
11.11.2019 12:00:00 7,2 4,4 6,6 28 15 50 27 S 1000,9 10 0,0
11.11.2019 11:00:00 7,2 4,5 6,5 28 15 43 23 S 1001,7 10 0,0
11.11.2019 10:00:00 6,9 4,7 6,3 26 14 43 23 S 1002,6 10 0,0
11.11.2019 09:00:00 6,4 4,8 5,9 22 12 40 21 S 1003,8 10 0,0
11.11.2019 08:00:00 6,2 4,6 5,5 26 14 40 21 S 1004,2 10 0,0
11.11.2019 07:00:00 5,8 4,4 5,0 18 10 32 18 SSE 1005,5 10 0,0
11.11.2019 06:00:00 5,2 3,9 4,6 18 10 29 16 SSE 1006,9 10 0,0
11.11.2019 05:00:00 5,0 3,7 4,4 18 10 25 14 SSE 1007,9 10 0,0
11.11.2019 04:00:00 5,0 3,7 4,3 15 8 25 14 S 1009,4 10 0,0
11.11.2019 03:00:00 4,9 3,6 3,3 13 7 22 12 S 1010,7 10 0,0
11.11.2019 02:00:00 3,7 2,5 0,8 13 7 18 10 S 1011,2 10 0,0
11.11.2019 01:00:00 3,1 1,8 -0,6 11 6 14 8 S 1011,9 10 0,0
11.11.2019 00:00:00 2,2 1,3 -1,1 11 6 14 8 S 1012,6 5 0,0
10.11.2019 23:00:00 2,1 1,9 -1,1 9 5 14 8 SE 1012,7 10 0,0
10.11.2019 22:00:00 0,7 0,7 -0,9 4 2 14 8 SSE 1013,5 0,7 0,0
10.11.2019 21:00:00 0,8 0,4 -0,7 5 3 7 4 S 1013,6 1,0 0,0
10.11.2019 20:00:00 1,8 1,7 0,0 5 3 11 6 SE 1014,2 6 0,0
10.11.2019 19:00:00 2,5 2,2 0,5 5 3 7 4 S 1014,8 10 0,0
10.11.2019 18:00:00 3,4 2,2 1,3 5 3 11 6 SSW 1014,5 10 0,0
10.11.2019 17:00:00 5,9 2,8 2,7 2 1 4 2 W 1014,1 10 0,0
10.11.2019 16:00:00 8,6 3,5 6,5 2 1 4 2 N 1013,9 10 0,0
10.11.2019 15:00:00 9,1 2,9 9,7 2 1 7 4 - 1013,7 10 0,0
10.11.2019 14:00:00 9,4 3,3 10,2 4 2 7 4 - 1013,3 10 0,0
10.11.2019 13:00:00 8,7 3,4 10,2 4 2 11 6 - 1013,3 10 0,0
10.11.2019 12:00:00 7,9 3,4 8,8 5 3 11 6 S 1013,2 10 0,0
10.11.2019 11:00:00 7,4 4,2 5,6 2 1 4 2 - 1013,2 10 0,0
10.11.2019 10:00:00 2,9 2,9 0,3 4 2 4 2 N 1012,7 6 0,0
10.11.2019 09:00:00 -0,6 -0,7 -1,1 4 2 7 4 S 1011,6 2,6 0,0
10.11.2019 08:00:00 -1,8 -1,9 -1,5 4 2 11 6 ENE 1010,7 1,7 0,0
10.11.2019 07:00:00 -1,6 -2,0 -1,1 2 1 7 4 ESE 1009,9 0,3 0,0
10.11.2019 06:00:00 1,0 1,0 -0,9 4 2 7 4 SE 1009,4 0,6 0,0
10.11.2019 05:00:00 -0,1 -0,5 -0,6 4 2 7 4 - 1008,7 2,6 0,0
10.11.2019 04:00:00 -0,2 -0,3 -0,4 8 4 7 4 SSE 1008,2 0,4 0,0
10.11.2019 03:00:00 0,4 0,3 0,0 5 3 7 4 SSE 1007,9 1,6 0,0
10.11.2019 02:00:00 1,8 1,4 0,5 2 1 7 4 - 1007,6 4,7 0,0
10.11.2019 01:00:00 2,8 2,3 1,1 5 3 11 6 SSE 1007,2 10 0,0
10.11.2019 00:00:00 2,8 2,1 1,4 8 4 11 6 S 1006,9 10 0,0
09.11.2019 23:00:00 3,4 2,3 2,1 9 5 14 8 S 1006,6 10 0,0
09.11.2019 22:00:00 4,3 2,5 2,2 9 5 18 10 S 1006,4 10 0,0
09.11.2019 21:00:00 3,1 1,8 2,5 9 5 14 8 S 1006,2 10 0,0
09.11.2019 20:00:00 4,7 2,4 3,4 9 5 18 10 S 1006,1 10 0,0
09.11.2019 19:00:00 7,0 3,0 4,5 9 5 25 14 SSW 1006,1 10 0,0
09.11.2019 18:00:00 6,7 2,8 4,7 16 9 25 14 SW 1006,0 10 0,0
09.11.2019 17:00:00 6,7 2,7 5,1 15 8 29 16 WSW 1005,9 10 0,0
09.11.2019 16:00:00 8,3 3,1 7,1 18 10 32 18 WSW 1005,8 10 0,0
09.11.2019 15:00:00 8,8 3,7 8,0 22 12 40 21 WSW 1005,7 10 0,0
09.11.2019 14:00:00 9,1 4,3 8,5 28 15 43 23 WSW 1005,5 10 0,0
09.11.2019 13:00:00 9,0 4,6 8,6 29 16 47 25 WSW 1005,4 10 0,0
09.11.2019 12:00:00 9,5 5,8 9,4 28 15 50 27 WSW 1005,6 10 0,0
09.11.2019 11:00:00 9,0 5,8 7,9 34 18 50 27 SW 1005,5 10 0,4
09.11.2019 10:00:00 8,2 5,8 7,2 26 14 43 23 SW 1005,4 10 1,3
09.11.2019 09:00:00 7,7 6,1 7,4 24 13 36 19 SW 1005,6 10 0,8
09.11.2019 08:00:00 7,4 4,5 6,1 16 9 29 16 WSW 1005,4 10 0,0
09.11.2019 07:00:00 8,4 6,1 7,2 18 10 32 18 WSW 1005,4 10 0,1
09.11.2019 06:00:00 8,3 6,4 7,4 21 11 32 18 WSW 1005,5 10 0,0
09.11.2019 05:00:00 8,2 6,7 7,1 16 9 25 14 SW 1005,7 10 0,0
09.11.2019 04:00:00 7,5 6,6 6,8 15 8 22 12 S 1005,9 10 0,0
09.11.2019 03:00:00 7,1 6,5 6,7 15 8 25 14 S 1006,0 5 0,1
09.11.2019 02:00:00 6,8 6,3 6,3 15 8 22 12 S 1006,2 4,5 0,5
09.11.2019 01:00:00 6,8 6,2 6,0 15 8 22 12 S 1006,5 5 0,0
09.11.2019 00:00:00 6,9 5,9 6,4 15 8 22 12 S 1006,7 7 0,0
08.11.2019 23:00:00 6,7 5,8 5,8 15 8 25 14 SSW 1006,9 7 0,0
08.11.2019 22:00:00 6,5 5,2 5,5 13 7 22 12 S 1007,2 10 0,0
08.11.2019 21:00:00 6,8 5,4 5,3 11 6 25 14 S 1006,9 10 0,0
08.11.2019 20:00:00 6,9 5,1 5,3 13 7 32 18 S 1006,6 10 0,0
08.11.2019 19:00:00 6,7 5,1 5,3 13 7 18 10 S 1006,6 10 0,0
08.11.2019 18:00:00 7,1 5,2 5,1 13 7 22 12 S 1006,7 10 0,0
08.11.2019 17:00:00 7,5 4,9 6,1 11 6 22 12 S 1006,5 10 0,0
08.11.2019 16:00:00 8,9 5,2 7,8 11 6 22 12 SSW 1005,9 10 0,0
08.11.2019 15:00:00 9,0 5,1 9,6 13 7 22 12 SW 1005,5 10 0,0
08.11.2019 14:00:00 9,9 5,8 11,2 13 7 29 16 S 1005,3 10 0,0
08.11.2019 13:00:00 9,5 6,1 10,8 13 7 29 16 S 1005,4 10 0,0
08.11.2019 12:00:00 8,7 5,5 10,1 11 6 18 10 SSW 1005,3 10 0,0
08.11.2019 11:00:00 7,5 5,2 7,8 13 7 25 14 S 1005,4 10 0,0
08.11.2019 10:00:00 5,9 4,3 5,4 15 8 22 12 S 1005,2 10 0,0
08.11.2019 09:00:00 4,6 3,6 3,6 13 7 22 12 S 1004,8 10 0,0
08.11.2019 08:00:00 4,1 3,0 2,9 13 7 29 16 SSE 1004,2 10 0,0
08.11.2019 07:00:00 3,9 2,9 2,8 13 7 29 16 S 1003,4 10 0,0
08.11.2019 06:00:00 4,0 3,0 2,9 15 8 22 12 S 1003,1 10 0,0
08.11.2019 05:00:00 4,2 3,2 3,0 11 6 18 10 S 1002,5 10 0,0
08.11.2019 04:00:00 4,5 3,4 3,6 16 9 22 12 S 1001,8 10 0,0
08.11.2019 03:00:00 4,4 3,3 3,3 11 6 18 10 S 1001,6 10 0,0
08.11.2019 02:00:00 4,8 3,7 3,8 16 9 22 12 SSE 1001,3 10 0,0
08.11.2019 01:00:00 5,1 3,7 4,1 13 7 25 14 S 1001,1 10 0,0
08.11.2019 00:00:00 6,1 4,2 4,7 18 10 29 16 S 1000,7 10 0,0
07.11.2019 23:00:00 6,5 4,4 5,0 16 9 25 14 S 1000,2 10 0,0
07.11.2019 22:00:00 7,0 4,0 5,4 21 11 43 23 SSW 999,7 10 0,0
07.11.2019 21:00:00 7,6 4,2 5,9 28 15 43 23 SSW 998,9 10 0,0
07.11.2019 20:00:00 7,6 4,5 6,1 26 14 43 23 SSW 998,1 10 0,0
07.11.2019 19:00:00 8,2 5,7 7,2 31 17 50 27 SSW 997,3 10 0,1
07.11.2019 18:00:00 9,3 5,4 7,2 24 13 40 21 SSW 996,3 10 0,0
07.11.2019 17:00:00 8,9 6,1 7,4 26 14 43 23 SW 995,1 10 0,7
07.11.2019 16:00:00 8,0 6,6 7,7 18 10 47 25 SW 994,4 10 1,0
07.11.2019 15:00:00 8,3 6,5 8,0 18 10 47 25 SW 993,2 10 1,2
07.11.2019 14:00:00 8,8 7,7 8,9 15 8 29 16 SE 992,7 10 1,2
07.11.2019 13:00:00 8,6 7,5 8,6 22 12 40 21 SE 992,8 10 2,1
07.11.2019 12:00:00 9,0 8,1 9,1 16 9 32 18 ESE 993,4 10 1,2
07.11.2019 11:00:00 8,8 7,9 8,9 15 8 25 14 ESE 993,9 10 0,1
07.11.2019 10:00:00 8,4 7,5 8,4 18 10 25 14 ESE 994,2 10 0,0
07.11.2019 09:00:00 7,9 7,2 7,6 15 8 22 12 ESE 994,6 8 0,0
07.11.2019 08:00:00 7,8 7,2 7,5 13 7 25 14 E 995,4 6 0,0
07.11.2019 07:00:00 8,0 7,4 7,6 13 7 18 10 ESE 995,9 5 0,0
07.11.2019 06:00:00 7,7 7,2 7,4 11 6 18 10 ESE 996,5 5 0,0
07.11.2019 05:00:00 7,3 6,9 6,9 11 6 14 8 ESE 997,3 6 0,0
07.11.2019 04:00:00 7,0 6,3 5,5 5 3 11 6 ESE 997,9 10 0,0
07.11.2019 03:00:00 5,0 4,4 4,9 8 4 14 8 SSE 998,7 10 0,0
07.11.2019 02:00:00 6,5 5,9 5,5 8 4 14 8 SSE 999,5 9 0,0
07.11.2019 01:00:00 7,0 6,5 6,3 11 6 14 8 SSE 999,9 10 0,0
07.11.2019 00:00:00 6,9 6,2 5,6 9 5 14 8 SSE 1000,5 10 0,0
06.11.2019 23:00:00 7,2 6,9 6,9 4 2 11 6 ESE 1001,1 10 0,0
06.11.2019 22:00:00 7,5 6,9 7,7 5 3 11 6 SE 1001,5 10 0,6
06.11.2019 21:00:00 7,8 6,5 7,6 11 6 14 8 E 1001,9 10 0,5
06.11.2019 20:00:00 8,1 6,2 8,1 5 3 11 6 SE 1002,3 10 0,0
06.11.2019 19:00:00 8,0 6,4 7,8 8 4 11 6 ESE 1002,6 10 0,0
06.11.2019 18:00:00 8,3 6,5 8,3 5 3 14 8 ESE 1002,8 10 0,0
06.11.2019 17:00:00 9,2 6,1 9,2 4 2 7 4 NE 1002,8 10 0,0
06.11.2019 16:00:00 9,7 5,6 9,4 2 1 7 4 - 1003,0 10 0,0
06.11.2019 15:00:00 10,9 5,3 11,3 4 2 7 4 - 1003,0 10 0,0
06.11.2019 14:00:00 11,5 6,3 12,1 4 2 7 4 - 1003,2 10 0,0
06.11.2019 13:00:00 9,4 6,5 10,9 4 2 18 10 - 1003,4 10 0,9
06.11.2019 12:00:00 10,4 6,2 10,1 2 1 7 4 - 1003,7 10 0,0
06.11.2019 11:00:00 9,5 6,7 10,3 5 3 11 6 N 1003,6 10 0,0
06.11.2019 10:00:00 9,0 7,8 8,8 5 3 7 4 WSW 1003,4 10 0,0
06.11.2019 09:00:00 8,0 7,3 8,3 2 1 11 6 - 1003,0 10 0,0
06.11.2019 08:00:00 8,0 7,5 8,1 8 4 14 8 N 1002,6 4,1 0,0
06.11.2019 07:00:00 8,4 7,6 8,2 8 4 18 10 N 1002,0 10 0,0
06.11.2019 06:00:00 8,4 7,7 8,2 5 3 7 4 NNW 1001,6 10 0,0

tt = temperature
td = dewpoint
tt 5cm = temperature 5cm
ff = wind speed
fx = gusts
dd = wind direction
ppp = reduced air pressure
vv = visibility
rr = precipitation

Next stations